Content
SEND FEEDBACK

Daily
Averages
Monthly
Summary
Ireland

DUBLIN, IRELAND


Home > Europe > Ireland
Elevation: 279 feet     Latitude: 53 26N     Longitude: 006 15W

WEATHER
 
SELECT A DAY
Number of Records: 322,119;   Date Range: 7/1/96 - 7/20/14
 
SHARE

PRINT THIS DATA

[ ← Previous Day ]
WEATHER ALMANAC - NOVEMBER 29, 2013
[ Next Day → ]
[ °C ]   °F
Weather ElementAverageHighLow
Temperature45.3 °F46.4 °F (12:00 am)41 °F (11:30 pm)
Dewpoint40.9 °F44.6 °F (12:30 am)37.4 °F (4:00 pm)
Humidity84 %93 % (12:30 am)73 % (12:00 pm)
Barometer30.40 in30.54 in (12:00 am)30.36 in (7:00 am)
Wind Speed17.9 mph23 mph (7:00 am)
Wind Gust33.4 mph (6:00 am)
Weather ElementAverage
Visibility6.8 mi
Wind DirectionW (273.8 °)

Weather ElementTotal
Precipitation---
Heating Degree Days21.3 (Base 65)
Averaged from 50 records on November 29, 2013
WEATHER CONDITIONS BREAKOUT
WIND DIRECTION BREAKOUT
WEATHER BY HOUR - NOVEMBER 29, 2013
[ °C ]   °F
Local TimeTemperatureDewpointHumidityBarometerVisibilityWind DirectionWind SpeedGust SpeedPrecipitationEventsConditions
12:00 AM46.4 °F42.8 °F87 %30.54 in6.2 miWSW (250°)15.0 mphMostly Cloudy
12:30 AM46.4 °F44.6 °F93 %30.51 in6.2 miWest (260°)16.1 mphMostly Cloudy
1:00 AM46.4 °F44.6 °F93 %30.51 in6.2 miWest (260°)16.1 mphMostly Cloudy
1:30 AM46.4 °F44.6 °F93 %30.48 in6.2 miWSW (250°)17.3 mphMostly Cloudy
2:00 AM46.4 °F42.8 °F87 %30.48 in6.2 miWSW (250°)17.3 mphMostly Cloudy
2:30 AM46.4 °F42.8 °F87 %30.48 in6.2 miWSW (250°)16.1 mphMostly Cloudy
3:00 AM46.4 °F42.8 °F87 %30.45 in6.2 miWSW (250°)16.1 mphMostly Cloudy
3:30 AM46.4 °F41.0 °F81 %30.42 in6.2 miWSW (250°)20.7 mphMostly Cloudy
4:00 AM46.4 °F41.0 °F81 %30.42 in6.2 miWSW (250°)19.6 mphMostly Cloudy
4:30 AM46.4 °F41.0 °F81 %30.42 in6.2 miWSW (250°)20.7 mphMostly Cloudy
5:00 AM46.4 °F41.0 °F81 %30.42 in6.2 miWSW (250°)19.6 mphMostly Cloudy
5:30 AM46.4 °F41.0 °F81 %30.42 in6.2 miWSW (250°)19.6 mphMostly Cloudy
6:00 AM46.4 °F41.0 °F81 %30.39 in6.2 miWSW (250°)21.9 mph33.4 mphMostly Cloudy
6:00 AM45.0 °F41.0 °F82 %30.41 in19.0 miWSW (250°)22.4 mphPartly Cloudy
7:00 AM46.4 °F42.8 °F87 %30.36 in6.2 miWSW (250°)23.0 mphScattered Clouds
7:30 AM46.4 °F42.8 °F87 %30.36 in6.2 miWSW (250°)21.9 mphRainLight Rain
8:00 AM46.4 °F44.6 °F93 %30.36 in6.2 miWSW (250°)23.0 mphMostly Cloudy
8:30 AM46.4 °F44.6 °F93 %30.36 in6.2 miWest (270°)20.7 mphLight Drizzle
9:00 AM46.4 °F44.6 °F93 %30.39 in6.2 miWNW (290°)18.4 mphMostly Cloudy
9:30 AM46.4 °F42.8 °F87 %30.39 in6.2 miWNW (300°)11.5 mphMostly Cloudy
10:00 AM46.4 °F41.0 °F81 %30.39 in6.2 miWNW (290°)16.1 mphMostly Cloudy
10:30 AM46.4 °F42.8 °F87 %30.39 in6.2 miWNW (290°)15.0 mphMostly Cloudy
11:00 AM46.4 °F41.0 °F81 %30.42 in6.2 miWest (280°)17.3 mphMostly Cloudy
11:30 AM46.4 °F41.0 °F81 %30.39 in6.2 miWNW (290°)18.4 mphMostly Cloudy
12:00 PM46.4 °F39.2 °F76 %30.39 in6.2 miWest (280°)19.6 mphMostly Cloudy
12:00 PM46.0 °F40.0 °F73 %30.41 in16.0 miWest (280°)17.9 mphPartly Cloudy
12:30 PM46.4 °F39.2 °F76 %30.39 in6.2 miWest (280°)17.3 mphMostly Cloudy
1:00 PM46.4 °F41.0 °F81 %30.39 in6.2 miWest (280°)18.4 mphMostly Cloudy
1:30 PM46.4 °F39.2 °F76 %30.36 in6.2 miWest (280°)18.4 mphMostly Cloudy
2:00 PM46.4 °F41.0 °F81 %30.36 in6.2 miWest (280°)18.4 mphMostly Cloudy
2:30 PM46.4 °F41.0 °F81 %30.36 in6.2 miWest (280°)18.4 mphRainLight Rain
3:00 PM46.4 °F39.2 °F76 %30.36 in6.2 miWest (280°)19.6 mphMostly Cloudy
3:30 PM46.4 °F39.2 °F76 %30.36 in6.2 miWNW (290°)21.9 mphMostly Cloudy
4:00 PM44.6 °F37.4 °F76 %30.36 in6.2 miWNW (290°)20.7 mphMostly Cloudy
4:30 PM44.6 °F39.2 °F81 %30.36 in6.2 miWNW (290°)18.4 mphMostly Cloudy
5:00 PM44.6 °F39.2 °F81 %30.39 in6.2 miWNW (300°)15.0 mphMostly Cloudy
5:30 PM44.6 °F39.2 °F81 %30.39 in6.2 miWNW (300°)19.6 mphMostly Cloudy
6:00 PM44.6 °F39.2 °F81 %30.39 in6.2 miWNW (290°)19.6 mphMostly Cloudy
6:00 PM44.0 °F39.0 °F77 %30.40 in16.0 miWNW (290°)20.1 mphPartly Cloudy
6:30 PM42.8 °F39.2 °F87 %30.39 in6.2 miWNW (290°)19.6 mphMostly Cloudy
7:00 PM42.8 °F39.2 °F87 %30.39 in6.2 miWest (280°)15.0 mphMostly Cloudy
7:30 PM42.8 °F39.2 °F87 %30.39 in6.2 miWNW (290°)17.3 mphMostly Cloudy
8:00 PM42.8 °F39.2 °F87 %30.39 in6.2 miWNW (290°)16.1 mphMostly Cloudy
8:30 PM42.8 °F39.2 °F87 %30.39 in6.2 miWest (280°)13.8 mphMostly Cloudy
9:00 PM42.8 °F39.2 °F87 %30.39 in6.2 miWest (280°)18.4 mphRainLight Rain
9:30 PM42.8 °F39.2 °F87 %30.39 in6.2 miWNW (290°)15.0 mphScattered Clouds
10:00 PM42.8 °F39.2 °F87 %30.39 in6.2 miWNW (290°)16.1 mphScattered Clouds
10:30 PM42.8 °F39.2 °F87 %30.42 in6.2 miWest (270°)11.5 mphMostly Cloudy
11:00 PM42.8 °F39.2 °F87 %30.42 in6.2 miWest (280°)12.7 mphScattered Clouds
11:30 PM41.0 °F39.2 °F93 %30.42 in6.2 miWest (280°)11.5 mphScattered Clouds
Hourly data recorded from EIDW, located miles away from Dublin, Ireland







STORIES FROM OUR PARTNERS